Погода в Топках

Россия / Липецкая область     53°20′11″N   39°35′42″E
В апреле 2022 года жителям России запретили посещать сайт meteo.paraplan.net по решению Генеральной прокуратуры. Аудитория сайта уменьшилась в 10 раз. Владельцы сайта не видят смысла в поддержке погодного сервера в таких условиях. Сайт будет закрыт в октябре.
темп.,
°C
ветер,
м/с
пор.,
м/с
влажн.,
%
обл.,
%
осадки,
мм/ч
давл.,
гПа
погр.,
м
4 октября, вт
вт400:00+10ююв816835 0.0 1008584
03:00+9ююв8168013 0.0 1009573
06:00+9ююв7168317 0.0 1010525
09:00+11ю9157658 0.1 10111024
12:00+12ю71475100 0.7 10121053
15:00+11ю7148486 2.9 1012861
18:00+11ююз61184100 1.6 1012484
21:00+9ююз4986100 1.6 1013455
5 октября, ср
ср500:00+9ююз61181100 0.0 1014739
03:00+7ююз61288100 0.1 1014575
06:00+8ююз6108799 0.1 10141085
09:00+8ююз61088100 0.3 10141042
12:00+10юз6871100 0.4 10151096
15:00+8зюз5785100 1.2 10161152
18:00+7з598284 0.2 1017409
21:00+7з498798 0.3 1018666
6 октября, чт
чт600:00+7з389194 0.1 1019484
03:00+7з5989100 0.4 1019604
06:00+7з5990100 0.3 1019607
09:00+7з3794100 0.4 1020395
12:00+8зюз2592100 0.2 1020297
15:00+9з2693100 0.3 1020485
18:00+9зюз2594100 0.0 1021214
21:00+9юз359582 0.0 1021108
7 октября, пт
пт700:00+9зюз499477 0.0 1020234
03:00+8зюз4109547 0.0 1019219
06:00+8зюз4119570 0.0 1020235
09:00+10зсз5108924 0.0 1020345
12:00+13сз68745 0.0 1022697
15:00+15сз58580 0.0 1023988
18:00+11сз36790 0.0 102594
21:00+9сз34890 0.0 102687
8 октября, сб
сб800:00+8сз33900 0.0 102744
03:00+7з22920 0.0 102721
06:00+6зюз22930 0.0 102827
09:00+9юз23820 0.0 1028193
12:00+13ююз34640 0.0 1026629
15:00+14ююз45581 0.0 1024822
18:00+11ю34750 0.0 102458
21:00+10ююз368161 0.0 1023112